www.pogodaiklimat.ru

Погода и климат >> Архив погоды >> Россия >> Ростовская область >> Семикаракорск


ПОГОДА в Семикаракорске

  • Прогноз погоды в Семикаракорске
  • Монитор погоды в Семикаракорске

АРХИВ ПОГОДЫ в Семикаракорске

Время (UTC), дата Ветер
(напр.,м/с)
 
Видим.   Явления Облачность Т
(С)
Тd
(С)
f
(%)
Тe
(С)
Тes
(С)
Комфортность P
(гПа)
Po
(гПа)
Тmin
(С)
Tmax
(С)
R
(мм)
R24
(мм)
S
(см)
03 16.09 штиль 0 4000 м дымка ясно +3.9 +2.0 87 +3 +3 1019.7 1018.0 +3.9
06 16.09 ЮЗ 2 10 км ясно +16.6 +2.3 38 +17 +21 1018.4 1016.8
09 16.09 ЮЗ 4 10 км ясно +23.1 -0.7 21 +22 +29 комфорт 1015.6 1014.1
12 16.09 ЮЗ 5
{10}
10 км ясно +25.3 -2.2 16 +23 +27 комфорт 1013.0 1011.5
15 16.09 ЮЗ 4
{10}
10 км ясно +22.8 -1.8 19 +22 +22 комфорт 1011.8 1010.3 +25.3
18 16.09 ЮЗ 2 10 км ясно +16.5 +2.6 39 +17 +17 1011.9 1010.3
21 16.09 ЮЗ 2 10 км ясно +13.9 +5.8 58 +14 +14 1011.3 1009.8
00 17.09 ЮЗ 3 10 км ясно +12.7 +6.3 65 +11 +11 1010.5 1008.9
03 17.09 ЮЗ 3 10 км ясно +13.0 +8.0 72 +12 +12 1010.0 1008.5 +12.4
06 17.09 ЮЗ 6 10 км ясно +19.6 +12.8 65 +21 +23 комфорт 1009.5 1008.0
09 17.09 ЮЗ 7-11
{11}
10 км 4/1 1000 м
[Cu hum Ac As]
+25.6 +10.8 39 +27 +29 жарко 1008.2 1006.7
12 17.09 ЮЗ 6-12
{13}
10 км 8/6 1000 м
[Cb cap Ac As]
+27.4 +7.4 28 +27 +28 жарко 1007.0 1005.5
15 17.09 СЗ 7-10
{12}
10 км 10/8 1000 м
[Sc diur, vesp Ac As]
+19.2 +11.5 61 +20 +20 1008.7 1007.2 +27.6
18 17.09 Ю 1
{10}
4000 м слаб. ливневой дождь 10/10 1000 м
[Cb cap]
+15.8 +14.0 89 +16 +16 1009.7 1008.2
21 17.09 Ю 2 4000 м ливневой дождь 10/10 1000 м
[Cb cap]
+15.1 +14.3 95 +15 +15 1009.0 1007.5
00 18.09 З 2 4000 м {снег} 8/0
[Ac cast]
+15.1 +14.4 96 +15 +15 1009.2 1007.7
03 18.09 ЮЗ 2 4000 м дымка 9/5 1000 м
[Sc Ac cast]
+13.3 +12.7 96 +12 +12 1009.4 1007.8 +13.3 4
06 18.09 ЮЗ 3 10 км 8/0
[Ac cast]
+16.4 +12.4 77 +16 +18 1009.4 1007.8 +13.0
09 18.09 ЮЗ 5 10 км 9/8 1000 м
[Cb calv Ac cast]
+21.5 +12.4 56 +24 +24 комфорт 1008.0 1006.5
12 18.09 ЮЗ 5
{15}
4000 м гроза, пыльная буря {морось} 9/9 1000 м
[Cb calv]
+19.9 +16.3 80 +22 +23 комфорт 1004.1 1002.6
15 18.09 ЮЗ 4
{20}
4000 м дымка {гроза, ливн. осадки} 10/10 600 м
[Cb calv]
+18.0 +15.7 86 +18 +18 1006.0 1004.5 +24.0 7
18 18.09 ЮЗ 4
{12}
4000 м слаб. ливневой дождь {гроза} 10/10 600 м
[Cb calv]
+15.7 +10.8 73 +15 +15 1009.1 1007.5
21 18.09 З 4
{10}
10 км {ливн. осадки} 9/3 1000 м
[Cb calv Ac cuf]
+13.2 +5.2 58 +12 +12 1012.5 1010.9
00 19.09 ЮЗ 4 10 км {ливн. осадки} ясно +9.5 +2 +2 1014.3 1012.7
03 19.09 З 2 10 км ясно +7.5 +3.7 77 +6 +6 1016.3 1014.7 +7.5 0.0
06 19.09 З 4 10 км ясно +11.9 +5.3 64 +10 +13 1018.2 1016.6 +7.3
09 19.09 З 5 10 км 8/8 600 м
[Cu med, cong]
+15.3 +5.6 52 +14 +15 1018.8 1017.3
12 19.09 З 5
{11}
10 км 8/8 600 м
[Cu med, cong]
+17.2 +4.5 43 +17 +17 1018.8 1017.2
15 19.09 З 3 10 км 3/0
[Ac cuf]
+16.0 +3.6 44 +16 +16 1019.1 1017.5 +17.5
18 19.09 штиль 0 10 км ясно +9.9 +5.6 75 +9 +9 1020.1 1018.6
21 19.09 Ю 1 10 км ясно +9.4 +6.9 84 +9 +9 1019.6 1018.0
00 20.09 ЮВ 1 4000 м дымка ясно +7.2 +6.7 97 +6 +6 1019.5 1017.9
03 20.09 Ю 1 4000 м дымка 10/0
[Ac und]
+7.6 +6.8 95 +7 +7 1018.9 1017.3 +5.3
06 20.09 штиль 0 10 км 10/0
[As trans Cs]
+11.1 +8.2 82 +11 +13 1018.6 1017.0
09 20.09 ЮЗ 1 10 км 10/1 1000 м
[Cu med, cong As trans Cs]
+14.5 +7.0 61 +15 +20 1017.6 1016.0
12 20.09 Ю 1 10 км 10/1 1000 м
[Sc diur, vesp Ac und]
+15.4 +5.6 52 +16 +18 1015.8 1014.2
15 20.09 Ю 2 10 км в посл. час дождь 10/10 1000 м
[Sc]
+11.4 +6.6 72 +10 +10 1016.4 1014.8 +15.6
18 20.09 Ю 2 4000 м слаб. дождь 10/10 600 м
[Sc]
+9.6 +8.7 94 +8 +8 1016.4 1014.9
21 20.09 ЮЗ 2 4000 м дымка {дождь} 10/10 600 м
[Sc]
+9.1 +8.0 93 +7 +7 1016.3 1014.7
00 21.09 ЮЗ 2 4000 м дымка {дождь} 10/10 600 м
[Sc]
+8.5 +7.8 95 +6 +6 1016.1 1014.5
03 21.09 ЮЗ 2 4000 м дымка 8/8 1000 м
[Sc]
+8.3 +7.7 96 +6 +6 1015.3 1013.7 +7.8 1
06 21.09 З 2 4000 м дымка 9/8 600 м
[Cb cap Ac cast]
+10.3 +8.5 89 +9 +9 1016.0 1014.4 +7.2
09 21.09 З 3 10 км 6/6 1000 м
[Cu med, cong]
+14.4 +6.4 59 +14 +17 1015.4 1013.8
12 21.09 СЗ 2
{13}
10 км слаб. ливневой дождь 9/9 1000 м
[Cb cap]
+12.8 +5.5 61 +12 +13 1015.3 1013.7
15 21.09 СЗ 2
{11}
10 км {ливн. осадки} 8/8 1000 м
[Sc diur, vesp]
+11.2 +4.7 64 +10 +10 1016.4 1014.9 +16.8 0.3
18 21.09 ЮЗ 2
{10}
4000 м слаб. ливневой дождь 10/10 1000 м
[Cb cap]
+8.4 +6.5 88 +6 +6 1018.4 1016.8
21 21.09 ЮЗ 2 4000 м дымка {ливн. осадки} 3/0
[Ac cuf]
+6.4 +5.3 93 +4 +4 1018.5 1016.9
00 22.09 ЮЗ 2 4000 м дымка {ливн. осадки} ясно +5.1 +4.0 93 +2 +2 1018.4 1016.8
03 22.09 ЮЗ 3 4000 м дымка 4/0
[Ac As Cc]
+4.2 +2.9 91 0 0 1018.4 1016.8 +4.2 0.8
06 22.09 ЮЗ 5 10 км 8/0
[Ac trans Cc]
+10.4 +6.4 76 +8 +9 1017.4 1015.8
09 22.09 ЮЗ 10-16
{16}
10 км 10/10 1000 м
[Cb calv]
+14.5 +5.2 54 +12 +12 1014.3 1012.8
12 22.09 ЮЗ 7-13
{17}
10 км в посл. час ливневой дождь 9/5 300 м
[Cb calv Ac cuf]
+13.9 +11.2 84 +12 +12 1012.6 1011.1
15 22.09 ЮЗ 7-14
{16}
10 км 8/4 600 м
[Cb calv Ac cuf]
+16.0 +8.8 62 +15 +15 1011.8 1010.2 +16.1 1
18 22.09 З 6-12
{16}
10 км 10/10 1000 м
[Cb calv]
+16.1 +7.5 57 +15 +15 1013.1 1011.5
21 22.09 ЮЗ 4
{12}
10 км 10/10 1000 м
[Sc diur, vesp]
+14.1 +9.8 75 +13 +13 1012.6 1011.0

 

Местоположение метеостанции Семикаракорск (Ростовская область, Россия): широта 47.52 долгота 40.83 высота над уровнем моря 12 м.

В архиве по умолчанию представлена погода в Семикаракорске за последнюю неделю. Архивные данные за месяц целиком и за предыдущие месяцы, начиная с января 2011 года, Вы можете получить, выбрав интересующий диапазон дат из раскрывающегося списка и нажав кнопку "Ввод!".


*Определитесь, кто Вы:
робот инопланетянин человек

Внимание! Время в таблицах - всемирное. Для получения местного времени необходимо прибавить поправку, которая равна 3 ч.

Смотрите также архив погоды в соседних городах и на ближайших метеорологических станциях:

Погода в Константиновске (Ростовская область, Россия) (21 км)
Погода в Шахтах (Ростовская область, Россия) (47 км)
Погода в Аэропорту Платов (Ростовская область, Россия) (68 км)
Погода в Белой Калитве (Ростовская область, Россия) (79 км)
Погода в Ростове-на-Дону (Ростовская область, Россия) (81 км)
Погода в Зерноград (Ростовская область, Россия) (84 км)
Погода в Каменск-Шахтинском (Ростовская область, Россия) (95 км)
Погода в Цимлянске (Ростовская область, Россия) (98 км)
Погода в Гиганте (Ростовская область, Россия) (118 км)
Погода в Морозовске (Ростовская область, Россия) (121 км)

Пояснения к столбцам:

Ветер - указаны скорость ветра в м/с - средняя за 10 мин, порывы в срок и между сроками (в фигурных скобках) и направление, откуда дует ветер: С - северный, СВ - северо-восточный, В - восточный, ЮВ - юго-восточный, Ю - южный, ЮЗ - юго-западный, З - западный, СЗ - северо-западный.
Видимость - горизонтальная дальность видимости в метрах или километрах. При видимости от 1 до 10 км при отсутствии осадков обычно наблюдается дымка, при ухудшении видимости до 1 км и менее - туман. В сухую погоду видимость может ухудшаться дымом, пылью или мглою.
Явления - указаны атмосферные явления, наблюдавшиеся в срок или в последний час перед сроком; фигурными скобками обозначены явления, наблюдавшиеся между сроками (за 1-3 часа до срока); квадратными скобками обозначены град или гололедные отложения с указанием их диаметра в мм.
Облачность - указаны через наклонную черту общая и нижняя облачность в баллах и высота нижней границы облаков в метрах; квадратными скобками обозначены формы облаков: Ci - перистые, Cs - перисто-слоистые, Cc - перисто-кучевые, Ac - высококучевые, As - высокослоистые, Sc - слоисто-кучевые, Ns - слоисто-дождевые, Cu - кучевые, Cb - кучево-дождевые. Подробнее классификацию облаков см. в Атласе облаков (PDF).
T - Температура воздуха - температура, измеренная на высоте 2 м над землей.
Td - Температура точки росы - температура, при понижении до которой содержащийся в воздухе водяной пар достигнет насыщения.
f - Относительная влажность воздуха - влажноcть воздуха, измеренная на высоте 2 м над землей.
Te - Эффективная температура - температура, которую ощущает одетый по сезону человек в тени. Характеристика душности погоды. При расчете учитывается влияние влажности воздуха и скорости ветра на теплоощущения человека.
Tes - Эффективная температура на солнце - температура, которую ощущает человек, с поправкой на солнечный нагрев. Характеристика знойности погоды. Зависит от высоты солнца над горизонтом, облачности и скорости ветра. Ночью, в пасмурную погоду, а также при ветре 12 м/с и более поправка равна нулю.
P - Атмосферное давление - приведенное к уровню моря атмосферное давление.
Po - Атмосферное давление - измеренное на уровне метеостанции атмосферное давление.
Tmin - Минимальная температура - минимум температуры воздуха на высоте 2 м над землей.
Tmax - Максимальная температура - максимум температуры воздуха на высоте 2 м над землей.
R - Количество осадков - Количество выпавших осадков за период времени, мм. При наведении курсора мыши на число - период времени, за который выпало указанное количество осадков.
R24 - Количество осадков - Количество выпавших осадков за 24 часа, мм.
S - Снежный покров - Высота снежного покрова, см. При наведении курсора мыши на число - состояние снежного покрова и степень покрытия местности в баллах.